METEOR 2-5 DEB, 31404

Orbit data source: Space-Track

METEOR 2-5 DEB, 31404 is space debris in LEO originally from a launch on Wed, 31 Oct 1979 UTC launched from the Plesetsk Missile And Space Complex (PKMTR). Debris objects in space refer to the collection of defunct objects orbiting the Earth. Examples of debris include non-operational satellites, rocket bodies, and fragments generated from explosions, collisions, or faulty payload assembly.

Loading next visibility...
Identifier
31404, 1979-095T
Orbit
LEO
Country
Flag of CISCIS
Related business
Manufacturer
Unknown
Mission
Spacecraft
Bus & Motor
Unknown
Mass
Unknown
Launch date (UTC)
1979-10-31 (47 years ago)
Launch vehicle
Unknown
Launch site
Plesetsk Missile And Space Complex (PKMTR)
Object type
Payload
Rocket body
Debris
Shape & HBR
Unknown shape, 0.1 m
Radar Cross Section
Small (<0.1 m²)

Expand to show TLE details & history
Last TLE update: 9 hours ago

TLE from 9 hours ago
0 METEOR 2-5 DEB
1 31404U 79095T   26123.69580089  .00025287  00000-0  37520-2 0  9994
2 31404  81.1803  98.1149 0002601  96.1448  85.0500 14.74937739670003
Epoch: 2026-05-03T16:41Z
TLE epoch observation values (Epoch: 2026-05-03T16:41:57.196Z)
Latitude
-1.33752°
Longitude
166.23738°
Altitude
648.361 km
Speed
7.534 km/s
True Right ascension
18h 33m 17s
True Declination
-1° 19' 46"
Sunlit
Object was in full shadow at epoch
Visualization orbit readout
Latitude
Unknown
Longitude
Unknown
Altitude
Unknown
Speed
Unknown
Apparent Right ascension
Unknown
Apparent Declination
Unknown
Sunlit
N/A
Visualization observer readout
Local Sidereal Time
09:35:56
Azimuth
Unknown
Elevation
Unknown
Doppler factor
Unknown
Orbital elements
Apogee altitude
644.266 km
Perigee altitude
640.614 km
Semi-major axis
7,020.577 km
Eccentricity
0.00026
Inclination
81.1803°
RAAN
98.1149°
Arg. of periapsis
96.1448°
True anomaly
85.07969°
Mean anomaly
85.05°
Eccentric anomaly
85.06485°
Mean motion
3.68964 °/min
Orbital period
97.57 mins
BSTAR
0.003752
Loading maneuver chart data...
Computing Atmospheric mass density...

Documentation

Showing up to 5 results
|